Regional Weather Roundup
Issued by NWS Goodland, KS

Home | Current Version | Previous Version | Graphics & Text | Print | Product List | Glossary On
Versions: 1 2 3 4 5 6 7 8 9 10 11 12 13 14 15 16 17 18 19 20 21 22 23 24 25 26 27 28 29 30 31 32 33 34 35 36 37 38 39 40 41 42 43 44 45 46 47 48 49 50
000
ASUS43 KGLD 260559
RWRGLD

GOODLAND FORECAST AREA HOURLY WEATHER ROUNDUP
NATIONAL WEATHER SERVICE GOODLAND KS
1100 PM MST SUN JAN 25 2015

...OFFICIAL OBSERVATIONS...

CITY           SKY/WX    TMP DP  RH WIND       PRES   REMARKS
GOODLAND KS    CLEAR     38  31  76 W13       30.12S
HILL CITY KS   PTCLDY    33  21  61 W5        30.09S
IMPERIAL NEB   CLEAR     42  30  62 W13       30.07S
MCCOOK NEB     PTCLDY    35  26  69 SW8       30.05S
AKRON CO       CLEAR     38  29  70 W14       30.16R
BURLINGTON CO  CLEAR     36  29  75 W12       30.15S
LIMON CO       CLEAR     30  26  85 N6        30.22R
$$

...UNOFFICIAL OBSERVATIONS...

CITY           SKY/WX    TMP DP  RH WIND       PRES   REMARKS
COLBY KS       CLEAR     37  34  87 W12       30.09S
GOVE KS          N/A     28  32 100 MISG        N/A
NORTON KS      CLOUDY    36  21  55 SW6       30.06S
SHARON SPRINGS   N/A     34  29  83 W10         N/A
KIT CARSON CO    N/A     34  27  76 MISG        N/A
YUMA CO          N/A     37  30  75 W14         N/A
$$



USA.gov is the U.S. government's official web portal to all federal, state and local government web resources and services.